<?xml version="1.0" encoding="UTF-8" standalone="no" ?>
<gpx xmlns="http://www.topografix.com/GPX/1/1" xmlns:xsi="http://www.w3.org/2001/XMLSchema-instance" xsi:schemaLocation="http://www.topografix.com/GPX/1/1 http://www.topografix.com/GPX/1/1/gpx.xsd" version="1.1" creator="VisuGPX - https://www.visugpx.com">
  <metadata>
    <name>Sagy Longuesse Théméricourt Vigny</name>
    <desc><![CDATA[Sagy Longuesse Théméricourt Vigny]]></desc>
  </metadata>
  <trk>
    <name><![CDATA[8128336-Sagy Longuesse Thémericourt Vigny]]></name>
    <trkseg>
      <trkpt lat="49.0494" lon="1.95231">
        <ele>50</ele>
        <time>2019-02-10T18:04:04Z</time>
      </trkpt>
      <trkpt lat="49.0494" lon="1.95234">
        <ele>50</ele>
        <time>2019-02-10T18:04:04Z</time>
      </trkpt>
      <trkpt lat="49.0494" lon="1.95231">
        <ele>50</ele>
        <time>2019-02-10T18:05:04Z</time>
      </trkpt>
      <trkpt lat="49.04966" lon="1.95229">
        <ele>50</ele>
        <time>2019-02-10T18:06:04Z</time>
      </trkpt>
      <trkpt lat="49.0498" lon="1.95174">
        <ele>48</ele>
        <time>2019-02-10T18:07:04Z</time>
      </trkpt>
      <trkpt lat="49.04997" lon="1.95117">
        <ele>47</ele>
        <time>2019-02-10T18:08:04Z</time>
      </trkpt>
      <trkpt lat="49.05007" lon="1.95081">
        <ele>47</ele>
        <time>2019-02-10T18:09:04Z</time>
      </trkpt>
      <trkpt lat="49.05023" lon="1.95061">
        <ele>48</ele>
        <time>2019-02-10T18:10:04Z</time>
      </trkpt>
      <trkpt lat="49.05037" lon="1.9499">
        <ele>47</ele>
        <time>2019-02-10T18:11:04Z</time>
      </trkpt>
      <trkpt lat="49.05064" lon="1.94967">
        <ele>47</ele>
        <time>2019-02-10T18:12:04Z</time>
      </trkpt>
      <trkpt lat="49.05084" lon="1.949">
        <ele>46</ele>
        <time>2019-02-10T18:13:04Z</time>
      </trkpt>
      <trkpt lat="49.05083" lon="1.94874">
        <ele>46</ele>
        <time>2019-02-10T18:14:04Z</time>
      </trkpt>
      <trkpt lat="49.05142" lon="1.94778">
        <ele>46</ele>
        <time>2019-02-10T18:15:04Z</time>
      </trkpt>
      <trkpt lat="49.05175" lon="1.94749">
        <ele>47</ele>
        <time>2019-02-10T18:19:04Z</time>
      </trkpt>
      <trkpt lat="49.05211" lon="1.94701">
        <ele>49</ele>
        <time>2019-02-10T18:22:04Z</time>
      </trkpt>
      <trkpt lat="49.05258" lon="1.94596">
        <ele>50.9</ele>
        <time>2019-02-10T18:27:04Z</time>
      </trkpt>
      <trkpt lat="49.05362" lon="1.94388">
        <ele>49</ele>
        <time>2019-02-10T18:28:04Z</time>
      </trkpt>
      <trkpt lat="49.05385" lon="1.9426">
        <ele>49</ele>
        <time>2019-02-10T18:29:04Z</time>
      </trkpt>
      <trkpt lat="49.05413" lon="1.94112">
        <ele>48.3</ele>
        <time>2019-02-10T18:30:04Z</time>
      </trkpt>
      <trkpt lat="49.05475" lon="1.93946">
        <ele>47.5</ele>
        <time>2019-02-10T18:32:04Z</time>
      </trkpt>
      <trkpt lat="49.05521" lon="1.93833">
        <ele>50</ele>
        <time>2019-02-10T18:33:04Z</time>
      </trkpt>
      <trkpt lat="49.05605" lon="1.93686">
        <ele>51.7</ele>
        <time>2019-02-10T18:34:04Z</time>
      </trkpt>
      <trkpt lat="49.05654" lon="1.93622">
        <ele>51</ele>
        <time>2019-02-10T18:35:04Z</time>
      </trkpt>
      <trkpt lat="49.05706" lon="1.93566">
        <ele>51.1</ele>
        <time>2019-02-10T18:37:04Z</time>
      </trkpt>
      <trkpt lat="49.05776" lon="1.93498">
        <ele>51</ele>
        <time>2019-02-10T18:38:04Z</time>
      </trkpt>
      <trkpt lat="49.0585" lon="1.93448">
        <ele>53.1</ele>
        <time>2019-02-10T18:39:04Z</time>
      </trkpt>
      <trkpt lat="49.05942" lon="1.93403">
        <ele>51</ele>
        <time>2019-02-10T18:40:04Z</time>
      </trkpt>
      <trkpt lat="49.05964" lon="1.934">
        <ele>51.5</ele>
        <time>2019-02-10T18:41:04Z</time>
      </trkpt>
      <trkpt lat="49.05974" lon="1.93284">
        <ele>52</ele>
        <time>2019-02-10T18:42:04Z</time>
      </trkpt>
      <trkpt lat="49.05956" lon="1.93114">
        <ele>59</ele>
        <time>2019-02-10T18:44:04Z</time>
      </trkpt>
      <trkpt lat="49.06018" lon="1.93119">
        <ele>59</ele>
        <time>2019-02-10T18:45:04Z</time>
      </trkpt>
      <trkpt lat="49.06116" lon="1.93121">
        <ele>59</ele>
        <time>2019-02-10T18:50:04Z</time>
      </trkpt>
      <trkpt lat="49.06246" lon="1.9315">
        <ele>59</ele>
        <time>2019-02-10T18:54:04Z</time>
      </trkpt>
      <trkpt lat="49.06252" lon="1.93128">
        <ele>60</ele>
        <time>2019-02-10T18:55:04Z</time>
      </trkpt>
      <trkpt lat="49.06278" lon="1.93095">
        <ele>61</ele>
        <time>2019-02-10T18:56:04Z</time>
      </trkpt>
      <trkpt lat="49.06254" lon="1.92958">
        <ele>66</ele>
        <time>2019-02-10T18:57:04Z</time>
      </trkpt>
      <trkpt lat="49.06237" lon="1.92801">
        <ele>68</ele>
        <time>2019-02-10T18:59:04Z</time>
      </trkpt>
      <trkpt lat="49.06213" lon="1.92589">
        <ele>70</ele>
        <time>2019-02-10T19:00:04Z</time>
      </trkpt>
      <trkpt lat="49.06197" lon="1.92464">
        <ele>72</ele>
        <time>2019-02-10T19:01:04Z</time>
      </trkpt>
      <trkpt lat="49.06195" lon="1.92334">
        <ele>74.1</ele>
        <time>2019-02-10T19:02:04Z</time>
      </trkpt>
      <trkpt lat="49.06196" lon="1.92072">
        <ele>73</ele>
        <time>2019-02-10T19:03:04Z</time>
      </trkpt>
      <trkpt lat="49.06376" lon="1.91962">
        <ele>70</ele>
        <time>2019-02-10T19:04:04Z</time>
      </trkpt>
      <trkpt lat="49.06411" lon="1.91933">
        <ele>69</ele>
        <time>2019-02-10T19:07:04Z</time>
      </trkpt>
      <trkpt lat="49.0644" lon="1.91891">
        <ele>68</ele>
        <time>2019-02-10T19:08:04Z</time>
      </trkpt>
      <trkpt lat="49.06464" lon="1.91841">
        <ele>69</ele>
        <time>2019-02-10T19:11:04Z</time>
      </trkpt>
      <trkpt lat="49.06477" lon="1.91783">
        <ele>69.4</ele>
        <time>2019-02-10T19:12:04Z</time>
      </trkpt>
      <trkpt lat="49.06527" lon="1.91563">
        <ele>72.4</ele>
        <time>2019-02-10T19:13:04Z</time>
      </trkpt>
      <trkpt lat="49.06554" lon="1.91482">
        <ele>73</ele>
        <time>2019-02-10T19:14:04Z</time>
      </trkpt>
      <trkpt lat="49.06589" lon="1.91406">
        <ele>73</ele>
        <time>2019-02-10T19:15:04Z</time>
      </trkpt>
      <trkpt lat="49.06655" lon="1.91241">
        <ele>77</ele>
        <time>2019-02-10T19:16:04Z</time>
      </trkpt>
      <trkpt lat="49.067" lon="1.91145">
        <ele>78</ele>
        <time>2019-02-10T19:17:04Z</time>
      </trkpt>
      <trkpt lat="49.0678" lon="1.91006">
        <ele>79.8</ele>
        <time>2019-02-10T19:18:04Z</time>
      </trkpt>
      <trkpt lat="49.06818" lon="1.90931">
        <ele>80</ele>
        <time>2019-02-10T19:19:04Z</time>
      </trkpt>
      <trkpt lat="49.06853" lon="1.90851">
        <ele>82</ele>
        <time>2019-02-10T19:20:04Z</time>
      </trkpt>
      <trkpt lat="49.06916" lon="1.90683">
        <ele>86</ele>
        <time>2019-02-10T19:21:04Z</time>
      </trkpt>
      <trkpt lat="49.06945" lon="1.90596">
        <ele>87</ele>
        <time>2019-02-10T19:22:04Z</time>
      </trkpt>
      <trkpt lat="49.06986" lon="1.90509">
        <ele>88.4</ele>
        <time>2019-02-10T19:23:04Z</time>
      </trkpt>
      <trkpt lat="49.07143" lon="1.90199">
        <ele>87.8</ele>
        <time>2019-02-10T19:24:04Z</time>
      </trkpt>
      <trkpt lat="49.07335" lon="1.90334">
        <ele>85.2</ele>
        <time>2019-02-10T19:25:04Z</time>
      </trkpt>
      <trkpt lat="49.07445" lon="1.9041">
        <ele>88</ele>
        <time>2019-02-10T19:27:04Z</time>
      </trkpt>
      <trkpt lat="49.07531" lon="1.90477">
        <ele>86.6</ele>
        <time>2019-02-10T19:28:04Z</time>
      </trkpt>
      <trkpt lat="49.07566" lon="1.90506">
        <ele>86</ele>
        <time>2019-02-10T19:32:04Z</time>
      </trkpt>
      <trkpt lat="49.07604" lon="1.90535">
        <ele>84.8</ele>
        <time>2019-02-10T19:34:04Z</time>
      </trkpt>
      <trkpt lat="49.07675" lon="1.90609">
        <ele>81</ele>
        <time>2019-02-10T19:35:04Z</time>
      </trkpt>
      <trkpt lat="49.07802" lon="1.90747">
        <ele>78.1</ele>
        <time>2019-02-10T19:36:04Z</time>
      </trkpt>
      <trkpt lat="49.07892" lon="1.90842">
        <ele>74.1</ele>
        <time>2019-02-10T19:38:04Z</time>
      </trkpt>
      <trkpt lat="49.0798" lon="1.90947">
        <ele>71</ele>
        <time>2019-02-10T19:39:04Z</time>
      </trkpt>
      <trkpt lat="49.08032" lon="1.91029">
        <ele>69.4</ele>
        <time>2019-02-10T19:40:04Z</time>
      </trkpt>
      <trkpt lat="49.08091" lon="1.90911">
        <ele>71</ele>
        <time>2019-02-10T19:43:04Z</time>
      </trkpt>
      <trkpt lat="49.08151" lon="1.9075">
        <ele>74</ele>
        <time>2019-02-10T19:44:04Z</time>
      </trkpt>
      <trkpt lat="49.08187" lon="1.90652">
        <ele>74</ele>
        <time>2019-02-10T19:45:04Z</time>
      </trkpt>
      <trkpt lat="49.08218" lon="1.90549">
        <ele>75</ele>
        <time>2019-02-10T19:46:04Z</time>
      </trkpt>
      <trkpt lat="49.08276" lon="1.90343">
        <ele>75</ele>
        <time>2019-02-10T19:47:04Z</time>
      </trkpt>
      <trkpt lat="49.08337" lon="1.90137">
        <ele>73.3</ele>
        <time>2019-02-10T19:48:04Z</time>
      </trkpt>
      <trkpt lat="49.08397" lon="1.89924">
        <ele>74</ele>
        <time>2019-02-10T19:49:04Z</time>
      </trkpt>
      <trkpt lat="49.08412" lon="1.89813">
        <ele>75</ele>
        <time>2019-02-10T19:50:04Z</time>
      </trkpt>
      <trkpt lat="49.0843" lon="1.89752">
        <ele>77</ele>
        <time>2019-02-10T19:51:04Z</time>
      </trkpt>
      <trkpt lat="49.08427" lon="1.89725">
        <ele>78</ele>
        <time>2019-02-10T19:54:04Z</time>
      </trkpt>
      <trkpt lat="49.0846" lon="1.89613">
        <ele>81</ele>
        <time>2019-02-10T19:55:04Z</time>
      </trkpt>
      <trkpt lat="49.08488" lon="1.89538">
        <ele>84</ele>
        <time>2019-02-10T19:56:04Z</time>
      </trkpt>
      <trkpt lat="49.08502" lon="1.89539">
        <ele>82.9</ele>
        <time>2019-02-10T19:57:04Z</time>
      </trkpt>
      <trkpt lat="49.08509" lon="1.89571">
        <ele>82.5</ele>
        <time>2019-02-10T19:58:04Z</time>
      </trkpt>
      <trkpt lat="49.08525" lon="1.8959">
        <ele>81</ele>
        <time>2019-02-10T20:00:04Z</time>
      </trkpt>
      <trkpt lat="49.08555" lon="1.896">
        <ele>79</ele>
        <time>2019-02-10T20:01:04Z</time>
      </trkpt>
      <trkpt lat="49.08587" lon="1.89598">
        <ele>78</ele>
        <time>2019-02-10T20:02:04Z</time>
      </trkpt>
      <trkpt lat="49.08591" lon="1.89582">
        <ele>78</ele>
        <time>2019-02-10T20:03:04Z</time>
      </trkpt>
      <trkpt lat="49.08607" lon="1.89594">
        <ele>78</ele>
        <time>2019-02-10T20:04:04Z</time>
      </trkpt>
      <trkpt lat="49.08616" lon="1.89568">
        <ele>79.3</ele>
        <time>2019-02-10T20:07:04Z</time>
      </trkpt>
      <trkpt lat="49.08649" lon="1.8958">
        <ele>79</ele>
        <time>2019-02-10T20:08:04Z</time>
      </trkpt>
      <trkpt lat="49.08653" lon="1.89566">
        <ele>79</ele>
        <time>2019-02-10T20:09:04Z</time>
      </trkpt>
      <trkpt lat="49.0867" lon="1.8957">
        <ele>80</ele>
        <time>2019-02-10T20:10:04Z</time>
      </trkpt>
      <trkpt lat="49.08665" lon="1.8961">
        <ele>79</ele>
        <time>2019-02-10T20:11:04Z</time>
      </trkpt>
      <trkpt lat="49.08662" lon="1.89684">
        <ele>78</ele>
        <time>2019-02-10T20:14:04Z</time>
      </trkpt>
      <trkpt lat="49.08679" lon="1.89741">
        <ele>78</ele>
        <time>2019-02-10T20:15:04Z</time>
      </trkpt>
      <trkpt lat="49.08705" lon="1.898">
        <ele>78</ele>
        <time>2019-02-10T20:16:04Z</time>
      </trkpt>
      <trkpt lat="49.08734" lon="1.89863">
        <ele>78</ele>
        <time>2019-02-10T20:17:04Z</time>
      </trkpt>
      <trkpt lat="49.08739" lon="1.89883">
        <ele>78</ele>
        <time>2019-02-10T20:18:04Z</time>
      </trkpt>
      <trkpt lat="49.08749" lon="1.89894">
        <ele>79</ele>
        <time>2019-02-10T20:21:04Z</time>
      </trkpt>
      <trkpt lat="49.08823" lon="1.89861">
        <ele>82</ele>
        <time>2019-02-10T20:22:04Z</time>
      </trkpt>
      <trkpt lat="49.0886" lon="1.89847">
        <ele>83</ele>
        <time>2019-02-10T20:26:04Z</time>
      </trkpt>
      <trkpt lat="49.0888" lon="1.89859">
        <ele>85</ele>
        <time>2019-02-10T20:27:04Z</time>
      </trkpt>
      <trkpt lat="49.0889" lon="1.89882">
        <ele>87</ele>
        <time>2019-02-10T20:28:04Z</time>
      </trkpt>
      <trkpt lat="49.08878" lon="1.8992">
        <ele>91</ele>
        <time>2019-02-10T20:29:04Z</time>
      </trkpt>
      <trkpt lat="49.08853" lon="1.8996">
        <ele>92</ele>
        <time>2019-02-10T20:31:04Z</time>
      </trkpt>
      <trkpt lat="49.08822" lon="1.90057">
        <ele>97</ele>
        <time>2019-02-10T20:32:04Z</time>
      </trkpt>
      <trkpt lat="49.08826" lon="1.90168">
        <ele>103</ele>
        <time>2019-02-10T20:33:04Z</time>
      </trkpt>
      <trkpt lat="49.08838" lon="1.9025">
        <ele>108</ele>
        <time>2019-02-10T20:34:04Z</time>
      </trkpt>
      <trkpt lat="49.08863" lon="1.90399">
        <ele>113.5</ele>
        <time>2019-02-10T20:35:04Z</time>
      </trkpt>
      <trkpt lat="49.08859" lon="1.90485">
        <ele>114</ele>
        <time>2019-02-10T20:36:04Z</time>
      </trkpt>
      <trkpt lat="49.08849" lon="1.90535">
        <ele>114</ele>
        <time>2019-02-10T20:37:04Z</time>
      </trkpt>
      <trkpt lat="49.08818" lon="1.90709">
        <ele>118</ele>
        <time>2019-02-10T20:38:04Z</time>
      </trkpt>
      <trkpt lat="49.08806" lon="1.90727">
        <ele>116</ele>
        <time>2019-02-10T20:40:04Z</time>
      </trkpt>
      <trkpt lat="49.08795" lon="1.90754">
        <ele>118.1</ele>
        <time>2019-02-10T20:41:04Z</time>
      </trkpt>
      <trkpt lat="49.08764" lon="1.909">
        <ele>118.2</ele>
      </trkpt>
      <trkpt lat="49.08738" lon="1.91054">
        <ele>114.6</ele>
      </trkpt>
      <trkpt lat="49.08715" lon="1.91114">
        <ele>116</ele>
      </trkpt>
      <trkpt lat="49.08643" lon="1.91263">
        <ele>114.8</ele>
      </trkpt>
      <trkpt lat="49.08622" lon="1.91312">
        <ele>113</ele>
      </trkpt>
      <trkpt lat="49.08613" lon="1.9137">
        <ele>113</ele>
      </trkpt>
      <trkpt lat="49.08592" lon="1.91475">
        <ele>111</ele>
      </trkpt>
      <trkpt lat="49.08561" lon="1.9158">
        <ele>110</ele>
      </trkpt>
      <trkpt lat="49.08503" lon="1.9173">
        <ele>116.4</ele>
      </trkpt>
      <trkpt lat="49.08443" lon="1.91857">
        <ele>117</ele>
      </trkpt>
      <trkpt lat="49.08396" lon="1.91969">
        <ele>118</ele>
      </trkpt>
      <trkpt lat="49.08334" lon="1.92079">
        <ele>117</ele>
      </trkpt>
      <trkpt lat="49.08311" lon="1.92134">
        <ele>118</ele>
      </trkpt>
      <trkpt lat="49.0829" lon="1.92188">
        <ele>118.7</ele>
      </trkpt>
      <trkpt lat="49.08291" lon="1.92224">
        <ele>118.8</ele>
      </trkpt>
      <trkpt lat="49.08187" lon="1.92239">
        <ele>112</ele>
      </trkpt>
      <trkpt lat="49.08183" lon="1.92228">
        <ele>112</ele>
      </trkpt>
      <trkpt lat="49.08109" lon="1.92298">
        <ele>103</ele>
      </trkpt>
      <trkpt lat="49.08077" lon="1.92306">
        <ele>99</ele>
      </trkpt>
      <trkpt lat="49.07963" lon="1.92293">
        <ele>85</ele>
      </trkpt>
      <trkpt lat="49.07911" lon="1.92288">
        <ele>78</ele>
      </trkpt>
      <trkpt lat="49.07844" lon="1.9226">
        <ele>75</ele>
      </trkpt>
      <trkpt lat="49.07823" lon="1.92363">
        <ele>73</ele>
      </trkpt>
      <trkpt lat="49.07814" lon="1.92442">
        <ele>72</ele>
      </trkpt>
      <trkpt lat="49.07785" lon="1.92559">
        <ele>71</ele>
      </trkpt>
      <trkpt lat="49.0776" lon="1.9262">
        <ele>70</ele>
      </trkpt>
      <trkpt lat="49.07749" lon="1.92662">
        <ele>69</ele>
      </trkpt>
      <trkpt lat="49.07737" lon="1.9266">
        <ele>69</ele>
      </trkpt>
      <trkpt lat="49.07747" lon="1.92667">
        <ele>69</ele>
      </trkpt>
      <trkpt lat="49.07739" lon="1.92697">
        <ele>69</ele>
      </trkpt>
      <trkpt lat="49.07726" lon="1.92752">
        <ele>70.3</ele>
      </trkpt>
      <trkpt lat="49.07661" lon="1.92713">
        <ele>68</ele>
      </trkpt>
      <trkpt lat="49.0759" lon="1.92678">
        <ele>69</ele>
      </trkpt>
      <trkpt lat="49.07502" lon="1.9263">
        <ele>72</ele>
      </trkpt>
      <trkpt lat="49.07395" lon="1.92588">
        <ele>71</ele>
      </trkpt>
      <trkpt lat="49.07339" lon="1.92563">
        <ele>69</ele>
      </trkpt>
      <trkpt lat="49.0718" lon="1.92758">
        <ele>60.7</ele>
      </trkpt>
      <trkpt lat="49.07046" lon="1.92915">
        <ele>72</ele>
      </trkpt>
      <trkpt lat="49.06905" lon="1.93065">
        <ele>81</ele>
      </trkpt>
      <trkpt lat="49.06826" lon="1.93142">
        <ele>89</ele>
      </trkpt>
      <trkpt lat="49.06776" lon="1.93215">
        <ele>88</ele>
      </trkpt>
      <trkpt lat="49.06732" lon="1.93288">
        <ele>84</ele>
      </trkpt>
      <trkpt lat="49.06709" lon="1.93314">
        <ele>81</ele>
      </trkpt>
      <trkpt lat="49.06672" lon="1.9334">
        <ele>76.5</ele>
      </trkpt>
      <trkpt lat="49.06638" lon="1.93358">
        <ele>72</ele>
      </trkpt>
      <trkpt lat="49.06596" lon="1.93369">
        <ele>70.6</ele>
      </trkpt>
      <trkpt lat="49.06537" lon="1.93391">
        <ele>65</ele>
      </trkpt>
      <trkpt lat="49.06489" lon="1.93403">
        <ele>62</ele>
      </trkpt>
      <trkpt lat="49.06455" lon="1.93389">
        <ele>59</ele>
      </trkpt>
      <trkpt lat="49.0644" lon="1.93398">
        <ele>58</ele>
      </trkpt>
      <trkpt lat="49.0642" lon="1.93432">
        <ele>57</ele>
      </trkpt>
      <trkpt lat="49.06397" lon="1.93442">
        <ele>56</ele>
      </trkpt>
      <trkpt lat="49.06371" lon="1.93438">
        <ele>55</ele>
      </trkpt>
      <trkpt lat="49.0633" lon="1.93469">
        <ele>56.3</ele>
      </trkpt>
      <trkpt lat="49.0632" lon="1.93505">
        <ele>58.9</ele>
      </trkpt>
      <trkpt lat="49.06329" lon="1.93539">
        <ele>59</ele>
      </trkpt>
      <trkpt lat="49.06379" lon="1.93634">
        <ele>61</ele>
      </trkpt>
      <trkpt lat="49.0643" lon="1.93715">
        <ele>62</ele>
      </trkpt>
      <trkpt lat="49.06369" lon="1.93797">
        <ele>65</ele>
      </trkpt>
      <trkpt lat="49.06289" lon="1.93928">
        <ele>72</ele>
      </trkpt>
      <trkpt lat="49.06216" lon="1.94052">
        <ele>74</ele>
      </trkpt>
      <trkpt lat="49.06149" lon="1.94171">
        <ele>73</ele>
      </trkpt>
      <trkpt lat="49.06077" lon="1.9428">
        <ele>69</ele>
      </trkpt>
      <trkpt lat="49.06002" lon="1.94404">
        <ele>65</ele>
      </trkpt>
      <trkpt lat="49.05976" lon="1.9445">
        <ele>65</ele>
      </trkpt>
      <trkpt lat="49.05938" lon="1.94545">
        <ele>67.9</ele>
      </trkpt>
      <trkpt lat="49.0589" lon="1.94678">
        <ele>70.5</ele>
      </trkpt>
      <trkpt lat="49.05858" lon="1.94763">
        <ele>74</ele>
      </trkpt>
      <trkpt lat="49.05844" lon="1.94795">
        <ele>74</ele>
      </trkpt>
      <trkpt lat="49.05825" lon="1.9482">
        <ele>72</ele>
      </trkpt>
      <trkpt lat="49.05781" lon="1.9488">
        <ele>69</ele>
      </trkpt>
      <trkpt lat="49.05742" lon="1.94951">
        <ele>66</ele>
      </trkpt>
      <trkpt lat="49.05676" lon="1.95093">
        <ele>67</ele>
      </trkpt>
      <trkpt lat="49.05613" lon="1.95243">
        <ele>67</ele>
      </trkpt>
      <trkpt lat="49.0558" lon="1.95328">
        <ele>64</ele>
      </trkpt>
      <trkpt lat="49.05552" lon="1.95413">
        <ele>63</ele>
      </trkpt>
      <trkpt lat="49.05527" lon="1.95479">
        <ele>64</ele>
      </trkpt>
      <trkpt lat="49.05499" lon="1.95542">
        <ele>65.4</ele>
      </trkpt>
      <trkpt lat="49.05426" lon="1.95445">
        <ele>62</ele>
      </trkpt>
      <trkpt lat="49.0535" lon="1.95329">
        <ele>59</ele>
      </trkpt>
      <trkpt lat="49.0531" lon="1.95292">
        <ele>58</ele>
      </trkpt>
      <trkpt lat="49.05274" lon="1.95269">
        <ele>59</ele>
      </trkpt>
      <trkpt lat="49.05226" lon="1.95255">
        <ele>58</ele>
      </trkpt>
      <trkpt lat="49.05156" lon="1.95247">
        <ele>55</ele>
      </trkpt>
      <trkpt lat="49.05117" lon="1.95249">
        <ele>53.6</ele>
      </trkpt>
      <trkpt lat="49.0507" lon="1.95241">
        <ele>52</ele>
      </trkpt>
      <trkpt lat="49.05028" lon="1.95238">
        <ele>51</ele>
      </trkpt>
      <trkpt lat="49.04993" lon="1.95235">
        <ele>50.3</ele>
      </trkpt>
      <trkpt lat="49.04975" lon="1.95232">
        <ele>50.1</ele>
      </trkpt>
      <trkpt lat="49.04954" lon="1.95234">
        <ele>50.1</ele>
      </trkpt>
      <trkpt lat="49.0494" lon="1.95236">
        <ele>50.2</ele>
      </trkpt>
      <trkpt lat="49.04941" lon="1.95233">
        <ele>51</ele>
      </trkpt>
    </trkseg>
  </trk>
</gpx>